DW9167 Weather Reports


Display with metric or nautical units.
time (UTC)temp
F
wind
direction
speed
MPH
gust
MPH
rain 1hr
in
rain 24hr
in
rain mn
in
humidity
%
barometer
mb
20260502180334 71 320 5.0 9.0 0.00 0.49 0.00 53 1015.5
20260502162632 66 36 4.0 6.0 0.00 0.64 0.00 58 1016.3
20260502161635 64 316 3.0 7.0 0.00 0.64 0.00 64 1016.3
20260502151933 60 359 0.0 4.0 0.00 0.69 0.00 72 1016.9
20260502150935 60 16 2.0 6.0 0.00 0.69 0.00 75 1016.6
20260502130134 50 1 3.0 5.0 0.00 0.89 0.00 95 1016.6
20260502122133 46 337 1.0 3.0 0.00 0.98 0.00 61 1016.6
20260502120134 45 337 0.0 0.0 0.00 1.03 0.00 72 1016.3
20260502115132 46 337 0.0 0.0 0.00 1.07 0.00 74 1015.9
20260502115033 46 337 0.0 0.0 0.00 1.08 0.00 80 1015.9
20260502114034 47 337 0.0 0.0 0.00 1.12 0.00 82 1015.9
20260502113037 46 337 0.0 0.0 0.00 1.15 0.00 83 1015.9
20260502112034 47 337 0.0 0.0 0.00 1.17 0.00 86 1015.6
20260502111033 48 337 0.0 0.0 0.00 1.20 0.00 87 1015.6
20260502110132 48 357 0.0 2.0 0.00 1.24 0.00 89 1015.6
20260502105135 48 360 0.0 2.0 0.00 1.29 0.00 91 1015.2
20260502104135 49 360 0.0 0.0 0.00 1.33 0.00 95 1015.2
20260502103132 49 6 2.0 5.0 0.00 1.37 0.00 96 1014.9
20260502102133 49 67 0.0 3.0 0.00 1.39 0.00 96 1014.5
20260502101133 49 6 0.0 5.0 0.00 1.43 0.00 96 1014.2
20260502100133 49 22 1.0 2.0 0.00 1.45 0.00 97 1014.2
20260502091234 49 22 3.0 4.0 0.00 1.53 0.00 97 1013.9
20260502090333 50 20 0.0 3.0 0.00 1.57 0.00 98 1013.9
20260502070632 50 357 0.0 1.0 0.00 1.73 0.00 93 1013.5
20260502065634 50 22 1.0 3.0 0.00 1.73 0.00 94 1013.2
20260502064634 50 337 0.0 1.0 0.00 1.73 0.00 95 1013.5
20260502063634 50 22 0.0 2.0 0.00 1.73 0.00 93 1013.5
20260502062634 50 1 0.0 2.0 0.00 1.74 0.00 94 1013.9
20260502061633 51 45 0.0 0.0 0.00 1.74 0.00 97 1013.9
20260502060634 51 360 0.0 0.0 0.00 1.74 0.00 97 1013.9
20260502055732 51 360 1.0 3.0 0.00 1.74 0.00 97 1013.9
20260502054734 51 22 0.0 4.0 0.00 1.74 0.00 97 1013.9
20260502054634 51 22 1.0 2.0 0.00 1.74 0.00 97 1013.9
20260502053732 51 22 0.0 2.0 0.00 1.74 0.00 98 1013.5
20260502052733 51 9 1.0 3.0 0.00 1.74 0.00 97 1013.5
20260502051734 51 16 1.0 3.0 0.00 1.74 0.00 97 1013.5
20260502050733 51 67 1.0 3.0 0.00 1.74 0.00 97 1013.5
20260502044916 51 22 0.0 2.0 0.00 1.75 1.74 98 1013.5
20260502043918 52 22 0.0 2.0 0.00 1.75 1.74 99 1013.5
20260502042917 52 19 2.0 4.0 0.00 1.75 1.74 99 1013.2
20260502041918 52 22 0.0 1.0 0.00 1.75 1.74 99 1013.2
20260502040017 53 16 1.0 4.0 0.00 1.75 1.74 99 1013.2
20260502035017 53 26 1.0 5.0 0.00 1.75 1.74 98 1013.2
20260502034115 53 16 1.0 6.0 0.00 1.75 1.74 98 1013.2
20260502033118 53 38 3.0 7.0 0.00 1.75 1.74 98 1013.2
20260502032118 53 47 3.0 5.0 0.00 1.75 1.74 98 1012.8
20260502031216 53 45 3.0 4.0 0.00 1.75 1.74 98 1012.8
20260502030219 53 31 2.0 5.0 0.00 1.75 1.74 98 1012.8
20260502025317 53 30 3.0 5.0 0.00 1.75 1.74 98 1012.7
20260502024317 53 60 2.0 5.0 0.00 1.76 1.74 98 1012.3
20260502023316 52 32 4.0 7.0 0.00 1.76 1.74 98 1011.7
20260502022316 52 45 2.0 4.0 0.00 1.77 1.74 94 1011.7
20260502021318 53 38 4.0 6.0 0.00 1.77 1.74 93 1011.7
20260502020319 52 27 4.0 6.0 0.00 1.77 1.74 84 1011.7
20260502015316 52 40 2.0 5.0 0.00 1.77 1.74 68 1011.6
20260502014319 51 360 0.0 2.0 0.00 1.77 1.74 57 1011.3
20260502013316 51 48 4.0 7.0 0.00 1.77 1.74 52 1011.1
20260502012316 51 63 4.0 6.0 0.00 1.77 1.74 52 1011.1
20260502011316 51 51 1.0 4.0 0.01 1.77 1.74 52 1010.8
20260502005319 51 46 4.0 9.0 0.02 1.77 1.74 52 1010.4
20260502004318 51 49 3.0 5.0 0.03 1.77 1.74 52 1010.2
20260502003317 51 22 2.0 5.0 0.03 1.77 1.74 52 1010.1
20260502002315 51 31 4.0 6.0 0.03 1.77 1.74 52 1009.4
20260502001318 52 30 2.0 4.0 0.02 1.76 1.73 52 1009.4
20260502000317 53 65 1.0 4.0 0.02 1.76 1.73 52 1009.1
20260501235316 53 65 5.0 7.0 0.01 1.75 1.72 52 1008.8
20260501234317 53 32 3.0 6.0 0.01 1.74 1.71 52 1009.3
20260501233317 52 37 4.0 6.0 0.01 1.74 1.71 51 1009.4
20260501231416 53 47 4.0 7.0 0.05 1.74 1.71 52 1009.4
20260501230416 53 40 4.0 7.0 0.05 1.74 1.71 51 1009.0
20260501225416 54 8 2.0 5.0 0.06 1.74 1.71 52 1008.7
20260501224415 54 26 4.0 8.0 0.09 1.73 1.70 51 1008.7
20260501223417 53 42 3.0 5.0 0.15 1.73 1.70 50 1008.6
20260501222416 53 20 5.0 9.0 0.15 1.72 1.69 51 1008.0
20260501221417 54 20 3.0 7.0 0.13 1.69 1.66 51 1008.0
20260501220516 54 43 3.0 4.0 0.13 1.69 1.66 51 1008.3
20260501214615 55 12 3.0 6.0 0.08 1.64 1.61 51 1008.0
20260501213615 55 32 5.0 8.0 0.03 1.59 1.56 51 1008.0
20260501211719 54 33 3.0 9.0 0.00 1.56 1.53 50 1007.6
20260501210816 55 25 1.0 6.0 0.00 1.56 1.53 51 1007.3
20260501205817 55 45 1.0 6.0 0.02 1.56 1.53 51 1007.3
20260501204815 55 352 2.0 5.0 0.02 1.56 1.53 50 1006.2
20260501203816 54 45 2.0 5.0 0.04 1.56 1.53 50 1006.6
20260501202915 56 23 3.0 6.0 0.06 1.56 1.53 50 1006.6
20260501201917 56 67 2.0 5.0 0.11 1.56 1.53 49 1005.6
20260501200919 56 33 3.0 7.0 0.11 1.56 1.53 50 1005.9
20260501195916 56 32 1.0 3.0 0.09 1.54 1.51 51 1006.2
20260501193016 56 12 3.0 7.0 0.07 1.51 1.47 51 1007.6
20260501192015 56 345 7.0 10.0 0.06 1.46 1.42 51 1008.3
20260501191015 56 299 2.0 6.0 0.13 1.53 1.42 51 1005.9
20260501190017 56 34 2.0 5.0 0.20 1.87 1.42 51 1005.9
20260501185020 56 48 4.0 7.0 0.24 2.11 1.42 51 1006.2
20260501184117 56 34 6.0 13.0 0.26 2.11 1.42 51 1006.2
20260501183118 56 23 3.0 6.0 0.28 2.10 1.41 51 1008.3
20260501182215 56 26 2.0 4.0 0.28 2.08 1.38 51 1009.0
20260501181216 56 9 2.0 5.0 0.21 2.00 1.29 51 1009.0